FW4251 Weather Reports


time (UTC)temp
C
wind
direction
speed
KPH
gust
KPH
rain 1hr
cm
rain 24hr
cm
rain mn
cm
humidity
%
barometer
mb
20260504082008 4 360 6.4 14.5 0.00 0.00 0.00 77 1011.5
20260504081506 4 360 3.2 9.7 0.00 0.00 0.00 77 1011.6
20260504081005 4 360 3.2 9.7 0.00 0.00 0.00 77 1011.6
20260504080507 4 193 3.2 9.7 0.00 0.00 0.00 77 1011.6
20260504050539 6 360 3.2 8.0 0.00 0.00 0.00 71 1011.5
20260504050104 6 360 4.8 8.0 0.00 0.00 0.00 71 1011.6
20260504045537 6 360 1.6 6.4 0.00 0.00 0.00 70 1011.6
20260504045040 6 360 1.6 6.4 0.00 0.00 0.00 68 1011.5
20260504044536 6 360 1.6 8.0 0.00 0.00 0.00 68 1011.5
20260504044036 6 360 1.6 8.0 0.00 0.00 0.00 68 1011.6
20260504043535 6 360 3.2 6.4 0.00 0.00 0.00 68 1011.6
20260504043034 6 360 1.6 8.0 0.00 0.00 0.00 67 1011.7
20260504042533 6 360 3.2 8.0 0.00 0.00 0.00 67 1011.7
20260504042031 7 360 1.6 8.0 0.00 0.00 0.00 67 1011.7
20260504041534 7 360 3.2 8.0 0.00 0.00 0.00 65 1011.7
20260504041029 7 360 3.2 6.4 0.00 0.00 0.00 65 1011.7
20260504040528 7 360 1.6 8.0 0.00 0.00 0.00 64 1011.6
20260504040031 7 360 1.6 8.0 0.00 0.00 0.00 63 1011.5
20260504035529 7 360 3.2 8.0 0.00 0.00 0.00 63 1011.6
20260504035029 7 360 3.2 6.4 0.00 0.00 0.00 63 1011.4
20260504034539 7 360 3.2 9.7 0.00 0.00 0.00 63 1011.5
20260504034030 7 360 3.2 9.7 0.00 0.00 0.00 62 1011.4
20260504033534 7 360 3.2 8.0 0.00 0.00 0.00 63 1011.4
20260504033030 7 360 3.2 6.4 0.00 0.00 0.00 63 1011.4
20260504032525 7 360 3.2 8.0 0.00 0.00 0.00 64 1011.4
20260504032025 6 360 3.2 8.0 0.00 0.00 0.00 65 1011.5
20260504031526 6 360 1.6 3.2 0.00 0.00 0.00 65 1011.4
20260504031026 6 360 0.0 3.2 0.00 0.00 0.00 63 1011.4
20260504030526 6 360 0.0 3.2 0.00 0.00 0.00 63 1011.5
20260504030036 7 360 0.0 4.8 0.00 0.00 0.00 61 1011.3
20260504025530 7 360 1.6 4.8 0.00 0.00 0.00 62 1011.4
20260504025025 6 360 1.6 4.8 0.00 0.00 0.00 65 1011.4
20260504024525 6 360 0.0 3.2 0.00 0.00 0.00 65 1011.4
20260504024026 7 360 0.0 3.2 0.00 0.00 0.00 63 1011.3
20260504023524 7 360 0.0 4.8 0.00 0.00 0.00 61 1011.3
20260504023024 7 360 1.6 4.8 0.00 0.00 0.00 61 1011.3
20260504022523 7 360 0.0 0.0 0.00 0.00 0.00 59 1011.3
20260504022023 7 360 0.0 0.0 0.00 0.00 0.00 59 1011.3
20260504021523 7 360 0.0 0.0 0.00 0.00 0.00 58 1011.3
20260504021023 7 360 0.0 0.0 0.00 0.00 0.00 58 1011.3
20260504020523 8 360 0.0 0.0 0.00 0.00 0.00 57 1011.3
20260504020023 8 360 0.0 0.0 0.00 0.00 0.00 56 1011.3
20260504015523 8 312 0.0 0.0 0.00 0.00 0.00 57 1011.3
20260504015023 8 312 0.0 1.6 0.00 0.00 0.00 56 1011.3
20260504014524 8 312 0.0 3.2 0.00 0.00 0.00 54 1011.3
20260504014022 8 312 0.0 3.2 0.00 0.00 0.00 54 1011.3
20260504013522 8 312 0.0 3.2 0.00 0.00 0.00 53 1011.3
20260504013023 8 312 0.0 1.6 0.00 0.00 0.00 53 1011.2
20260504012523 8 312 0.0 1.6 0.00 0.00 0.00 52 1011.2
20260504012022 8 312 0.0 1.6 0.00 0.00 0.00 53 1011.2
20260504011523 9 312 0.0 3.2 0.00 0.00 0.00 53 1011.2
20260504011021 9 312 0.0 4.8 0.00 0.00 0.00 52 1011.1
20260504010523 9 360 1.6 4.8 0.00 0.00 0.00 52 1011.1
20260504010021 9 310 1.6 3.2 0.00 0.00 0.00 53 1011.0
20260504005521 9 312 1.6 3.2 0.00 0.00 0.00 52 1010.9
20260504005021 10 311 0.0 3.2 0.00 0.00 0.00 51 1011.0
20260504004523 10 312 0.0 4.8 0.00 0.00 0.00 49 1010.9
20260504004021 10 311 1.6 4.8 0.00 0.00 0.00 49 1010.9
20260504003520 10 311 0.0 4.8 0.00 0.00 0.00 48 1010.8
20260504003022 11 311 0.0 4.8 0.00 0.00 0.00 46 1010.7
20260504002519 11 311 1.6 8.0 0.00 0.00 0.00 45 1010.7
20260504002019 11 311 3.2 8.0 0.00 0.00 0.00 45 1010.6
20260504001519 11 317 1.6 3.2 0.00 0.00 0.00 44 1010.5
20260504001019 12 317 1.6 4.8 0.00 0.00 0.00 43 1010.4
20260504000518 12 360 0.0 4.8 0.00 0.00 0.00 43 1010.3
20260504000018 12 317 1.6 9.7 0.00 0.00 0.00 42 1010.4
20260503235518 12 317 3.2 9.7 0.00 0.00 0.00 41 1010.3
20260503235018 12 319 3.2 9.7 0.00 0.00 0.00 41 1010.2
20260503234522 12 331 3.2 9.7 0.00 0.00 0.00 41 1010.3
20260503234018 12 304 3.2 12.9 0.00 0.00 0.00 40 1010.1
20260503233517 12 313 3.2 12.9 0.00 0.00 0.00 40 1010.1
20260503233017 12 314 4.8 8.0 0.00 0.00 0.00 39 1010.0
20260503232517 13 327 3.2 27.4 0.00 0.00 0.00 40 1010.0
20260503232017 13 329 6.4 27.4 0.00 0.00 0.00 38 1010.0
20260503231519 13 312 9.7 20.9 0.00 0.00 0.00 37 1010.0
20260503231017 13 309 1.6 9.7 0.00 0.00 0.00 38 1010.1
20260503230517 13 305 3.2 20.9 0.00 0.00 0.00 37 1010.0
20260503230016 13 309 4.8 17.7 0.00 0.00 0.00 36 1010.0
20260503225516 13 328 4.8 12.9 0.00 0.00 0.00 35 1009.9
20260503225016 13 287 4.8 12.9 0.00 0.00 0.00 34 1009.8
20260503224516 13 279 3.2 22.5 0.00 0.00 0.00 33 1009.7
20260503224017 13 323 6.4 22.5 0.00 0.00 0.00 34 1009.5
20260503223517 13 345 6.4 24.1 0.00 0.00 0.00 32 1009.5
20260503223022 13 272 12.9 24.1 0.00 0.00 0.00 32 1009.6
20260503222515 13 246 8.0 27.4 0.00 0.00 0.00 32 1009.6
20260503222016 13 315 11.3 27.4 0.00 0.00 0.00 31 1009.5
20260503221515 14 294 8.0 19.3 0.00 0.00 0.00 31 1009.4
20260503221015 14 315 8.0 17.7 0.00 0.00 0.00 30 1009.3
20260503220515 14 5 8.0 29.0 0.00 0.00 0.00 30 1009.3
20260503220017 14 323 12.9 29.0 0.00 0.00 0.00 28 1009.2
20260503215515 15 235 6.4 17.7 0.00 0.00 0.00 30 1009.4
20260503215013 14 307 6.4 16.1 0.00 0.00 0.00 31 1009.3
20260503214514 15 302 6.4 22.5 0.00 0.00 0.00 29 1009.3
20260503214014 15 294 9.7 22.5 0.00 0.00 0.00 28 1009.3
20260503213513 15 9 6.4 17.7 0.00 0.00 0.00 28 1009.2
20260503213012 15 360 9.7 20.9 0.00 0.00 0.00 28 1009.2
20260503212512 15 5 4.8 16.1 0.00 0.00 0.00 31 1009.2
20260503212011 15 340 8.0 20.9 0.00 0.00 0.00 29 1009.3
20260503211517 15 313 11.3 22.5 0.00 0.00 0.00 29 1009.4
20260503211010 15 9 6.4 19.3 0.00 0.00 0.00 30 1009.3
20260503210508 15 333 9.7 17.7 0.00 0.00 0.00 31 1009.3
20260503210016 15 320 8.0 22.5 0.00 0.00 0.00 31 1009.3
20260503205512 14 9 6.4 32.2 0.00 0.00 0.00 33 1009.3
20260503205007 14 336 11.3 24.1 0.00 0.00 0.00 30 1009.3
20260503204506 14 331 12.9 25.7 0.00 0.00 0.00 31 1009.3
20260503204006 14 319 12.9 25.7 0.00 0.00 0.00 30 1009.3
20260503203504 14 308 11.3 22.5 0.00 0.00 0.00 31 1009.4
20260503203011 14 5 8.0 19.3 0.00 0.00 0.00 32 1009.5
20260503202503 14 17 9.7 25.7 0.00 0.00 0.00 33 1009.5
20260503202004 13 344 9.7 24.1 0.00 0.00 0.00 32 1009.5
20260503201503 13 347 14.5 24.1 0.00 0.00 0.00 31 1009.4
20260503201002 14 318 6.4 25.7 0.00 0.00 0.00 35 1009.5
20260503200501 14 331 11.3 25.7 0.00 0.00 0.00 33 1009.5
20260503200000 14 335 6.4 25.7 0.00 0.00 0.00 34 1009.6
20260503195500 14 355 6.4 32.2 0.00 0.00 0.00 33 1009.7
20260503195100 13 342 11.3 32.2 0.00 0.00 0.00 32 1009.7
20260503194600 15 313 9.7 20.9 0.00 0.00 0.00 32 1009.9
20260503194100 14 213 4.8 17.7 0.00 0.00 0.00 35 1009.8
20260503193557 13 254 8.0 22.5 0.00 0.00 0.00 36 1010.0
20260503193057 13 288 12.9 30.6 0.00 0.00 0.00 32 1010.2
20260503192556 13 327 12.9 30.6 0.00 0.00 0.00 33 1010.1
20260503192055 13 304 12.9 25.7 0.00 0.00 0.00 34 1010.2
20260503191604 13 304 14.5 25.7 0.00 0.00 0.00 35 1010.3
20260503191054 13 5 11.3 22.5 0.00 0.00 0.00 35 1010.3
20260503190553 13 318 12.9 25.7 0.00 0.00 0.00 36 1010.2
20260503190052 13 253 9.7 25.7 0.00 0.00 0.00 37 1010.3
20260503185551 13 347 9.7 20.9 0.00 0.00 0.00 36 1010.5
20260503185051 12 263 11.3 24.1 0.00 0.00 0.00 37 1010.5
20260503184607 12 10 11.3 24.1 0.00 0.00 0.00 37 1010.7
20260503184050 13 22 4.8 20.9 0.00 0.00 0.00 37 1010.7
20260503183549 13 355 6.4 22.5 0.00 0.00 0.00 37 1010.6
20260503183049 12 32 11.3 22.5 0.00 0.00 0.00 38 1010.5
20260503182547 12 344 11.3 22.5 0.00 0.00 0.00 38 1010.8
20260503182047 11 30 9.7 22.5 0.00 0.00 0.00 41 1010.8
20260503181550 11 5 9.7 38.6 0.00 0.00 0.00 39 1010.9
20260503181047 12 355 12.9 38.6 0.00 0.00 0.00 39 1011.0
20260503180547 12 324 8.0 19.3 0.00 0.00 0.00 41 1010.8
20260503175645 12 321 14.5 27.4 0.00 0.00 0.00 39 1011.1
20260503175044 12 278 8.0 25.7 0.00 0.00 0.00 43 1011.0
20260503174600 11 5 14.5 25.7 0.00 0.00 0.00 41 1011.1
20260503174044 11 348 14.5 37.0 0.00 0.00 0.00 40 1011.2
20260503173544 10 342 11.3 37.0 0.00 0.00 0.00 41 1011.1
20260503173043 10 294 14.5 30.6 0.00 0.00 0.00 43 1011.1
20260503172543 10 339 12.9 30.6 0.00 0.00 0.00 43 1011.2
20260503172042 10 316 14.5 27.4 0.00 0.00 0.00 40 1011.2
20260503171542 11 306 9.7 27.4 0.00 0.00 0.00 42 1011.2
20260503171042 11 332 14.5 27.4 0.00 0.00 0.00 40 1011.1
20260503170545 11 313 16.1 32.2 0.00 0.00 0.00 41 1011.1
20260503150535 9 331 4.8 20.9 0.00 0.00 0.00 43 1011.2
20260503131018 7 360 12.9 24.1 0.00 0.00 0.00 54 1011.8
20260503130518 7 360 9.7 20.9 0.00 0.00 0.00 55 1011.9
20260503110600 4 360 3.2 6.4 0.00 0.00 0.00 73 1011.3
20260503100107 1 14 1.6 4.8 0.00 0.00 0.00 83 1010.7